sat.trackr.live / text

‹ back to catalog

STARLINK-30076

NORAD 56839 · 2023-079S

PAYLOAD ACTIVE UNKNOWN

§ Identity

Operator
Country
US
Launch date
2023-06-04
Launch site
AFETR
Launch vehicle
Mass (kg)
RCS (m²)

Purposes: comms

External: N2YO · Heavens-Above · Gunter

§ Orbital elements

Epoch: 2026-09-20T21:40:17.113440Z

Period
94.27 min
Inclination
43.0019°
Eccentricity
0.0001323
Mean motion
15.27576997 rev/d
Perigee alt
482.2 km
Apogee alt
484.0 km
Semi-major
6,861.2 km
B*
1.7158e-5
RAAN
84.5717°
Arg perigee
272.9987°
Mean anomaly
87.0713°
Rev number
18,274

§ Raw data

STARLINK-300761 56839U 23079S   26263.90297585  .00000210  00000+0  17158-4 0  99942 56839  43.0019  84.5717 0001323 272.9987  87.0713 15.27576997182741

JSON: /api/v1/satellites/56839 · /tle

For live sub-satellite position, see the globe view (requires WebGL).

§ Visibility from observer

Set your observer location to see the next 7 days of passes ≥ 10°. The values pass through the URL so the page stays shareable.

No JS? Fill the form by hand. The geolocation button needs JavaScript.